Regional Weather Roundup
Issued by NWS Sterling, VA

Home | Current Version | Previous Version | Graphics & Text | Print | Product List | Glossary On
Versions: 1 2 3 4 5 6 7 8 9 10 11 12 13 14 15 16 17 18 19 20 21 22 23 24 25 26 27 28 29 30 31 32 33 34 35 36 37 38 39 40 41 42 43 44 45 46 47 48 49 50
000
ASUS41 KLWX 221110
RWRLWX

REGIONAL WEATHER ROUNDUP
NATIONAL WEATHER SERVICE BALTIMORE MD/WASHINGTON DC
700 AM EDT FRI MAY 22 2015

Note: "FAIR" indicates few or no clouds below 12,000 feet
with no significant weather and/or obstructions to visibility.
 TC=TEMPERATURE CELSIUS

 * =Non NWS site. Station does not report precipitation (e.g. rain,
    snow, etc.), thunder, or fog.

DCZ001-MDZ009-015-VAZ040>042-051-053>054-221200-
WASHINGTON METRO

CITY           SKY/WX    TMP DP  RH WIND       PRES   REMARKS
WASHINGTON NAT SUNNY     54  44  69 W6        30.06R
DULLES         SUNNY     51  43  74 NW12      30.05R
ANDREWS AFB    SUNNY     52  45  75 W8        30.04R
FT BELVOIR     SUNNY     45  44  94 SE1       30.06R FOG
QUANTICO       SUNNY     52  43  71 NW10      30.07R
COLLEGE PARK*  SUNNY     50  46  87 CALM      30.04S
LEESBURG*      SUNNY     52  45  76 N3        30.07R
MANASSAS*      SUNNY     52  45  76 NW6       30.06
GAITHERSBURG*  SUNNY     50  41  71 NW13G23   30.06S

$$

MDZ006>007-011-014-221200-
BALTIMORE METRO

CITY           SKY/WX    TMP DP  RH WIND       PRES   REMARKS
BWI AIRPORT    SUNNY     50  45  83 SW6       30.02R
MD SCIENCE CTR   N/A     54  43  66 MISG      30.02R
MARTIN STATE   SUNNY     54  46  76 W8        30.02R
ANNAPOLIS      SUNNY     51  46  83 W8        30.02R
FORT MEADE*    SUNNY     46  45  93 CALM      30.06R

$$

MDZ012-015-019>023-221200-
MARYLAND EASTERN SHORE

CITY           SKY/WX    TMP DP  RH WIND       PRES   REMARKS
OCEAN CITY     SUNNY     51  49  92 NW9       29.99R
SALISBURY      SUNNY     52  49  89 W7        30.01R
BAY BRIDGE AP*   N/A    N/A N/A N/A NW9G17    30.03R
CAMBRIDGE*     SUNNY     57  46  67 NW9G17    30.01R
EASTON*        SUNNY     55  54  94 NW9       30.05R

$$

MDZ017>025-221200-
SOUTHERN MARYLAND

CITY           SKY/WX    TMP DP  RH WIND       PRES   REMARKS
PATUXENT RIVER SUNNY     53  46  77 W13       30.03R
ST INIGOES     SUNNY     52  46  80 NW8       30.04R
LEONARDTOWN*   SUNNY     50  45  81 W7        30.06R

$$

MDZ003>005-221200-
NORTH CENTRAL MARYLAND

CITY           SKY/WX    TMP DP  RH WIND       PRES   REMARKS
FREDERICK*     NOT AVBL
HAGERSTOWN APT SUNNY     49  43  80 S5        30.05R
WESTMINSTER*   SUNNY     50  43  76 W8        30.02S

$$

MDZ501>502-221200-
WESTERN MARYLAND

CITY           SKY/WX    TMP DP  RH WIND       PRES   REMARKS
OAKLAND*       SUNNY     39 N/A N/A SW8       30.10R
CUMBERLAND*    SUNNY     52  41  66 SE5       30.12R

$$

VAZ025>031-221200-
SHENANDOAH VALLEY

CITY           SKY/WX    TMP DP  RH WIND       PRES   REMARKS
WINCHESTER*    SUNNY     46  39  76 SE3       30.07R
FRONT ROYAL*   FAIR      46  43  87 S6        30.07R
LURAY*         FAIR      52  43  71 S8        30.10R
NEW MARKET*    FAIR      42  42  97 CALM      30.11R
STAUNTON*      SUNNY     43  40  90 CALM      30.14R
WAYNESBORO*    FAIR      48  37  67 CALM      30.12R

$$

WVZ021-048>050-054>055-221200-
EASTERN WEST VIRGINIA PANHANDLE

CITY           SKY/WX    TMP DP  RH WIND       PRES   REMARKS
MARTINSBURG    SUNNY     47  43  86 S5        30.06R
PETERSBURG*    SUNNY     45  41  85 E3        30.12R

$$

VAZ036>039-050-221200-
CENTRAL FOOTHILLS

CITY           SKY/WX    TMP DP  RH WIND       PRES   REMARKS
CHARLOTTESVILL SUNNY     53  40  61 CALM      30.09R
CULPEPER*      SUNNY     45  43  91 CALM      30.08R
ORANGE*        SUNNY     52  45  76 CALM      30.10R
GORDONSVILLE*  FAIR      52  42  68 W8        30.08R
WARRENTON*     FAIR      50  46  85 SW5       30.07R

$$

VAZ055>057-221200-
NORTH AND CENTRAL PIEDMONT

CITY           SKY/WX    TMP DP  RH WIND       PRES   REMARKS
FREDERICKSBRG* SUNNY     51  50  98 SW3       30.07R
STAFFORD*      SUNNY     49  44  83 NW6       30.11R

$$

NCZ024-NYZ072-PAZ021-071-VAZ022-071-221200-
OTHER REGIONAL OBSERVATIONS

CITY           SKY/WX    TMP DP  RH WIND       PRES   REMARKS
NEW YORK CITY  SUNNY     56  42  59 CALM      29.93R
PHILADELPHIA   SUNNY     53  44  71 W10       29.97R
PITTSBURGH     PTCLDY    45  38  76 W8        30.07R
ROANOKE        PTCLDY    51  39  63 NW7       30.17R
RICHMOND       MOSUNNY   54  48  80 CALM      30.09R
RALEIGH        PTCLDY    54  46  74 CALM      30.12R

$$

ANZ530>537-221200-
MARINE OBSERVATIONS

STATION/POSITION TIME  TEMP    WIND        PRES
                       AIR SEA DIR/SP/G
                 (UTC) (F)     (DEG/KT/KT) (MB)
THOMAS PT LIGHT  1100   53 65  290/ 19/ 21 1016.9R
BALT KEY BRIDGE  1000   54     270/ 13/ 15 1015.5R
LEWISETTA        1000   56 66              1016.8R
PINEY POINT      1000          350/ 18/ 20   N/A

$$




USA.gov is the U.S. government's official web portal to all federal, state and local government web resources and services.